QPF
0.04 0.03 0.02 0.02 0.02 0.03 0.04 0.04 0.02 0.01 0.01 0.01 0.02 0.03 0.04 0.05 0.05 0.07 0.06 0.05 0.05 0.04 0.04 0.04 0.04 0.05 0.05 0.05 0.05 0.04 0.05 0.06 0.05 0.04 0.04 0.03 0.04 0.05 0.05 0.04 0.04 0.04 0.02
0.03 0.03 0.02 0.03 0.03 0.04 0.04 0.04 0.03 0.03 0.02 0.02 0.02 0.02 0.01 0.02 0.04 0.04 0.05 0.04 0.05 0.04 0.04 0.04 0.03 0.04 0.05 0.06 0.05 0.06 0.07 0.07 0.08 0.07 0.06 0.05 0.05 0.05 0.06 0.06 0.04 0.04 0.02
0.03 0.02 0.02 0.03 0.03 0.04 0.04 0.03 0.03 0.04 0.04 0.03 0.03 0.03 0.03 0.03 0.03 0.03 0.03 0.03 0.03 0.03 0.03 0.04 0.03 0.04 0.05 0.05 0.06 0.07 0.08 0.08 0.10 0.09 0.07 0.07 0.06 0.06 0.07 0.07 0.05 0.05 0.02
0.02 0.02 0.03 0.03 0.03 0.03 0.03 0.04 0.04 0.04 0.04 0.04 0.04 0.04 0.03 0.03 0.03 0.03 0.03 0.02 0.02 0.02 0.02 0.03 0.04 0.05 0.06 0.06 0.06 0.07 0.08 0.09 0.09 0.09 0.08 0.08 0.09 0.08 0.08 0.08 0.08 0.07 0.04
0.02 0.02 0.03 0.03 0.03 0.03 0.03 0.04 0.04 0.04 0.03 0.03 0.04 0.05 0.04 0.04 0.04 0.03 0.03 0.02 0.02 0.03 0.02 0.02 0.03 0.03 0.04 0.05 0.05 0.06 0.07 0.08 0.08 0.08 0.07 0.08 0.08 0.10 0.10 0.09 0.08 0.08 0.06
0.02 0.02 0.02 0.01 0.01 0.02 0.02 0.03 0.04 0.04 0.04 0.05 0.05 0.05 0.05 0.04 0.03 0.02 0.02 0.01 0.02 0.03 0.03 0.03 0.02 0.02 0.03 0.03 0.03 0.03 0.04 0.05 0.05 0.05 0.06 0.07 0.10 0.11 0.11 0.10 0.09 0.07 0.06
0.02 0.01 0.01 0.01 0.01 0.01 0.01 0.03 0.05 0.05 0.06 0.07 0.07 0.06 0.04 0.03 0.03 0.02 0.01 0.02 0.02 0.03 0.03 0.04 0.03 0.03 0.04 0.04 0.03 0.02 0.02 0.03 0.03 0.04 0.06 0.07 0.10 0.12 0.10 0.08 0.08 0.08 0.07
0.02 0.02 0.01 0.01 0.01 0.01 0.02 0.03 0.04 0.06 0.06 0.07 0.06 0.06 0.06 0.05 0.04 0.03 0.02 0.02 0.03 0.03 0.04 0.05 0.05 0.05 0.06 0.05 0.03 0.04 0.05 0.06 0.06 0.07 0.08 0.08 0.10 0.11 0.10 0.07 0.07 0.07 0.07
0.04 0.04 0.03 0.01 0.01 0.01 0.02 0.04 0.05 0.06 0.06 0.05 0.06 0.06 0.06 0.05 0.05 0.04 0.03 0.03 0.04 0.04 0.04 0.05 0.05 0.06 0.05 0.04 0.04 0.05 0.05 0.06 0.07 0.08 0.08 0.08 0.07 0.06 0.05 0.04 0.04 0.05 0.05
0.05 0.03 0.02 0.02 0.02 0.03 0.04 0.04 0.05 0.05 0.05 0.04 0.04 0.05 0.05 0.04 0.05 0.03 0.02 0.03 0.03 0.04 0.05 0.05 0.04 0.03 0.03 0.04 0.03 0.04 0.05 0.06 0.06 0.07 0.08 0.08 0.06 0.07 0.07 0.06 0.06 0.05 0.05
0.02 0.02 0.02 0.02 0.03 0.02 0.03 0.03 0.03 0.02 0.03 0.04 0.03 0.03 0.04 0.04 0.04 0.03 0.01 0.02 0.03 0.04 0.04 0.06 0.07 0.05 0.04 0.04 0.04 0.05 0.05 0.05 0.05 0.06 0.07 0.07 0.08 0.10 0.12 0.11 0.10 0.08 0.06
0.02 0.02 0.02 0.02 0.02 0.01 0.02 0.02 0.02 0.02 0.02 0.04 0.04 0.04 0.03 0.03 0.02 0.02 0.02 0.02 0.01 0.01 0.02 0.03 0.04 0.04 0.03 0.03 0.03 0.03 0.02 0.02 0.03 0.03 0.04 0.05 0.07 0.08 0.09 0.09 0.09 0.09 0.08
0.02 0.02 0.02 0.02 0.02 0.01 0.01 0.01 0.01 0.02 0.02 0.02 0.03 0.04 0.03 0.02 0.02 0.02 0.02 0.02 0.02 0.01 0.02 0.02 0.02 0.01 0.01 0.01 0.01 0.01 0.01 0.01 0.03 0.03 0.04 0.05 0.05 0.07 0.07 0.08 0.08 0.07 0.06
0.02 0.02 0.02 0.02 0.01 0.01 0.01 0.00 0.01 0.01 0.01 0.02 0.02 0.03 0.02 0.02 0.01 0.02 0.02 0.02 0.02 0.01 0.01 0.01 0.01 0.01 0.01 0.01 0.01 0.01 0.02 0.03 0.04 0.05 0.05 0.05 0.04 0.06 0.07 0.07 0.07 0.07 0.07
0.02 0.01 0.01 0.01 0.01 0.01 0.01 0.01 0.02 0.02 0.03 0.02 0.02 0.02 0.01 0.01 0.01 0.01 0.01 0.02 0.02 0.01 0.01 0.01 0.01 0.01 0.02 0.02 0.02 0.02 0.02 0.03 0.04 0.05 0.05 0.05 0.05 0.05 0.06 0.06 0.07 0.07 0.06
0.01 0.01 0.01 0.01 0.01 0.01 0.01 0.01 0.01 0.02 0.03 0.03 0.02 0.01 0.01 0.01 0.00 0.00 0.01 0.01 0.02 0.02 0.02 0.01 0.02 0.02 0.02 0.02 0.02 0.02 0.02 0.02 0.03 0.04 0.05 0.05 0.04 0.05 0.05 0.06 0.06 0.07 0.06
0.02 0.02 0.01 0.01 0.01 0.01 0.01 0.01 0.01 0.01 0.02 0.02 0.01 0.01 0.00 0.00 0.00 0.00 0.00 0.00 0.01 0.02 0.02 0.02 0.02 0.02 0.02 0.02 0.02 0.02 0.02 0.02 0.03 0.03 0.04 0.04 0.04 0.04 0.05 0.05 0.05 0.05 0.06
0.02 0.02 0.01 0.01 0.02 0.02 0.01 0.00 0.00 0.00 0.01 0.01 0.01 0.00 0.00 0.00 0.00 0.00 0.00 0.00 0.01 0.01 0.02 0.03 0.02 0.02 0.02 0.02 0.02 0.03 0.04 0.04 0.03 0.04 0.05 0.04 0.04 0.04 0.05 0.05 0.05 0.06 0.06
0.02 0.02 0.01 0.01 0.01 0.01 0.01 0.00 0.01 0.01 0.01 0.01 0.00 0.00 0.01 0.01 0.00 0.01 0.00 0.00 0.01 0.01 0.02 0.02 0.02 0.02 0.02 0.02 0.03 0.05 0.05 0.05 0.05 0.05 0.05 0.04 0.04 0.05 0.06 0.06 0.06 0.06 0.05
0.02 0.01 0.01 0.01 0.00 0.00 0.01 0.00 0.00 0.00 0.01 0.00 0.00 0.00 0.01 0.01 0.01 0.01 0.00 0.00 0.01 0.01 0.02 0.02 0.02 0.02 0.03 0.04 0.04 0.04 0.04 0.05 0.04 0.05 0.05 0.06 0.06 0.07 0.06 0.06 0.06 0.06 0.06
0.01 0.01 0.01 0.01 0.00 0.00 0.00 0.00 0.00 0.00 0.00 0.00 0.00 0.00 0.01 0.02 0.02 0.01 0.01 0.01 0.01 0.01 0.02 0.02 0.02 0.02 0.02 0.03 0.04 0.04 0.04 0.05 0.07 0.06 0.05 0.05 0.05 0.05 0.05 0.04 0.04 0.05 0.05
0.00 0.00 0.01 0.01 0.00 0.00 0.00 0.00 0.00 0.00 0.00 0.00 0.00 0.00 0.00 0.01 0.01 0.01 0.01 0.01 0.01 0.01 0.02 0.02 0.02 0.02 0.03 0.03 0.04 0.05 0.05 0.05 0.05 0.05 0.05 0.04 0.04 0.04 0.04 0.04 0.04 0.05 0.06
0.01 0.01 0.00 0.00 0.00 0.00 0.00 0.00 0.00 0.00 0.00 0.00 0.01 0.01 0.00 0.01 0.00 0.01 0.01 0.01 0.01 0.01 0.01 0.02 0.02 0.02 0.03 0.04 0.04 0.03 0.03 0.02 0.03 0.03 0.03 0.03 0.02 0.02 0.02 0.03 0.03 0.04 0.05
0.00 0.00 0.00 0.00 0.00 0.00 0.00 0.00 0.00 0.00 0.00 0.00 0.01 0.00 0.00 0.00 0.00 0.01 0.01 0.01 0.01 0.01 0.01 0.02 0.02 0.02 0.02 0.02 0.01 0.01 0.01 0.01 0.01 0.01 0.01 0.01 0.01 0.01 0.01 0.02 0.02 0.03 0.03
0.00 0.00 0.00 0.00 0.00 0.00 0.00 0.00 0.00 0.00 0.01 0.01 0.00 0.00 0.00 0.00 0.00 0.01 0.01 0.01 0.01 0.01 0.01 0.02 0.02 0.01 0.01 0.01 0.01 0.01 0.01 0.00 0.00 0.00 0.00 0.00 0.01 0.01 0.01 0.02 0.02 0.02 0.02
0.00 0.00 0.00 0.00 0.00 0.00 0.00 0.00 0.00 0.00 0.01 0.00 0.00 0.00 0.00 0.00 0.00 0.00 0.00 0.01 0.01 0.01 0.02 0.02 0.01 0.01 0.01 0.01 0.00 0.00 0.00 0.00 0.00 0.00 0.00 0.01 0.01 0.01 0.01 0.01 0.01 0.01 0.01
MSLP
1013.12 1013.43 1013.76 1014.08 1014.36 1014.56 1014.69 1014.72 1014.68 1014.61 1014.52 1014.45 1014.42 1014.44 1014.49 1014.55 1014.59 1014.60 1014.55 1014.44 1014.27 1014.06 1013.84 1013.62 1013.41 1013.22 1013.03 1012.82 1012.57 1012.24 1011.83 1011.32 1010.72 1010.05 1009.36 1008.67 1008.02 1007.44 1006.95 1006.56 1006.25 1006.02 1005.85
1013.49 1013.76 1014.04 1014.31 1014.54 1014.71 1014.80 1014.81 1014.75 1014.66 1014.56 1014.48 1014.44 1014.45 1014.48 1014.53 1014.57 1014.56 1014.50 1014.35 1014.14 1013.88 1013.59 1013.30 1013.01 1012.74 1012.49 1012.25 1011.98 1011.68 1011.31 1010.86 1010.34 1009.76 1009.13 1008.48 1007.85 1007.25 1006.71 1006.23 1005.82 1005.49 1005.21
1013.80 1014.02 1014.26 1014.48 1014.68 1014.81 1014.88 1014.88 1014.81 1014.71 1014.61 1014.53 1014.48 1014.48 1014.51 1014.55 1014.58 1014.56 1014.47 1014.30 1014.06 1013.74 1013.39 1013.02 1012.65 1012.30 1011.98 1011.69 1011.40 1011.09 1010.76 1010.38 1009.93 1009.43 1008.88 1008.30 1007.70 1007.10 1006.53 1006.00 1005.52 1005.08 1004.71
1014.07 1014.25 1014.43 1014.62 1014.78 1014.90 1014.95 1014.93 1014.87 1014.77 1014.66 1014.57 1014.52 1014.50 1014.52 1014.55 1014.57 1014.53 1014.43 1014.24 1013.96 1013.61 1013.20 1012.75 1012.31 1011.89 1011.50 1011.15 1010.83 1010.52 1010.20 1009.86 1009.49 1009.06 1008.59 1008.07 1007.52 1006.95 1006.38 1005.82 1005.28 1004.78 1004.33
1014.29 1014.43 1014.58 1014.74 1014.87 1014.96 1015.00 1014.97 1014.90 1014.80 1014.68 1014.58 1014.51 1014.48 1014.48 1014.49 1014.48 1014.43 1014.31 1014.11 1013.80 1013.42 1012.97 1012.48 1011.98 1011.49 1011.05 1010.64 1010.28 1009.96 1009.65 1009.34 1009.01 1008.64 1008.23 1007.78 1007.27 1006.74 1006.18 1005.61 1005.05 1004.52 1004.02
1014.48 1014.58 1014.70 1014.83 1014.94 1015.00 1015.02 1014.99 1014.90 1014.79 1014.65 1014.53 1014.44 1014.38 1014.34 1014.32 1014.29 1014.22 1014.08 1013.86 1013.54 1013.14 1012.67 1012.15 1011.61 1011.09 1010.60 1010.16 1009.77 1009.43 1009.12 1008.81 1008.51 1008.17 1007.81 1007.39 1006.93 1006.43 1005.90 1005.35 1004.79 1004.25 1003.74
1014.61 1014.70 1014.80 1014.90 1014.98 1015.03 1015.02 1014.97 1014.86 1014.72 1014.56 1014.40 1014.28 1014.18 1014.10 1014.05 1013.98 1013.88 1013.73 1013.49 1013.17 1012.76 1012.28 1011.76 1011.21 1010.68 1010.17 1009.71 1009.30 1008.93 1008.61 1008.30 1008.00 1007.68 1007.33 1006.94 1006.51 1006.04 1005.53 1005.01 1004.47 1003.95 1003.46
1014.70 1014.77 1014.86 1014.93 1015.00 1015.02 1014.98 1014.90 1014.76 1014.59 1014.39 1014.21 1014.04 1013.90 1013.78 1013.69 1013.59 1013.47 1013.29 1013.04 1012.72 1012.31 1011.84 1011.32 1010.78 1010.25 1009.74 1009.27 1008.85 1008.48 1008.14 1007.82 1007.51 1007.19 1006.84 1006.45 1006.03 1005.58 1005.10 1004.60 1004.10 1003.61 1003.15
1014.73 1014.80 1014.88 1014.94 1014.98 1014.97 1014.91 1014.79 1014.62 1014.41 1014.19 1013.96 1013.76 1013.59 1013.44 1013.31 1013.19 1013.04 1012.84 1012.58 1012.25 1011.85 1011.39 1010.88 1010.35 1009.82 1009.32 1008.85 1008.43 1008.05 1007.71 1007.38 1007.06 1006.72 1006.36 1005.98 1005.56 1005.11 1004.64 1004.17 1003.70 1003.25 1002.84
1014.74 1014.81 1014.88 1014.92 1014.94 1014.90 1014.81 1014.65 1014.45 1014.21 1013.96 1013.71 1013.49 1013.29 1013.13 1012.98 1012.83 1012.67 1012.46 1012.19 1011.84 1011.43 1010.97 1010.46 1009.93 1009.41 1008.91 1008.45 1008.03 1007.65 1007.30 1006.97 1006.64 1006.29 1005.93 1005.53 1005.11 1004.67 1004.22 1003.77 1003.33 1002.91 1002.54
1014.73 1014.81 1014.87 1014.90 1014.89 1014.82 1014.69 1014.51 1014.27 1014.01 1013.74 1013.49 1013.26 1013.06 1012.89 1012.74 1012.59 1012.41 1012.18 1011.89 1011.53 1011.10 1010.61 1010.09 1009.54 1009.01 1008.50 1008.04 1007.62 1007.24 1006.89 1006.56 1006.23 1005.89 1005.52 1005.13 1004.72 1004.29 1003.85 1003.42 1003.01 1002.62 1002.28
1014.74 1014.81 1014.86 1014.87 1014.83 1014.73 1014.57 1014.35 1014.10 1013.82 1013.55 1013.29 1013.07 1012.89 1012.73 1012.59 1012.44 1012.26 1012.02 1011.70 1011.31 1010.84 1010.32 1009.76 1009.18 1008.62 1008.09 1007.60 1007.17 1006.79 1006.45 1006.12 1005.81 1005.48 1005.13 1004.76 1004.37 1003.96 1003.54 1003.13 1002.74 1002.39 1002.07
1014.77 1014.84 1014.87 1014.86 1014.79 1014.65 1014.45 1014.20 1013.92 1013.64 1013.36 1013.12 1012.92 1012.76 1012.62 1012.50 1012.36 1012.17 1011.91 1011.58 1011.15 1010.64 1010.06 1009.45 1008.82 1008.21 1007.65 1007.14 1006.69 1006.30 1005.96 1005.65 1005.35 1005.05 1004.73 1004.39 1004.03 1003.66 1003.27 1002.89 1002.53 1002.20 1001.91
1014.81 1014.87 1014.88 1014.84 1014.73 1014.55 1014.32 1014.04 1013.74 1013.44 1013.16 1012.93 1012.75 1012.61 1012.50 1012.39 1012.25 1012.07 1011.80 1011.43 1010.97 1010.42 1009.79 1009.13 1008.45 1007.80 1007.19 1006.65 1006.18 1005.78 1005.44 1005.14 1004.87 1004.60 1004.32 1004.02 1003.70 1003.36 1003.02 1002.67 1002.35 1002.04 1001.77
1014.84 1014.88 1014.87 1014.79 1014.65 1014.43 1014.16 1013.84 1013.52 1013.21 1012.93 1012.70 1012.52 1012.40 1012.29 1012.19 1012.06 1011.87 1011.59 1011.21 1010.72 1010.13 1009.48 1008.78 1008.07 1007.38 1006.75 1006.18 1005.70 1005.29 1004.95 1004.66 1004.40 1004.16 1003.91 1003.65 1003.37 1003.07 1002.77 1002.46 1002.16 1001.89 1001.64
1014.80 1014.82 1014.78 1014.68 1014.50 1014.25 1013.94 1013.60 1013.25 1012.92 1012.63 1012.40 1012.22 1012.08 1011.98 1011.87 1011.73 1011.53 1011.24 1010.85 1010.36 1009.77 1009.12 1008.42 1007.72 1007.03 1006.40 1005.83 1005.35 1004.94 1004.60 1004.31 1004.05 1003.81 1003.58 1003.33 1003.07 1002.80 1002.53 1002.25 1001.98 1001.73 1001.51
1014.64 1014.64 1014.59 1014.46 1014.25 1013.98 1013.66 1013.30 1012.94 1012.60 1012.29 1012.03 1011.83 1011.68 1011.55 1011.42 1011.26 1011.05 1010.76 1010.38 1009.91 1009.36 1008.75 1008.10 1007.45 1006.81 1006.22 1005.69 1005.22 1004.82 1004.48 1004.18 1003.91 1003.65 1003.40 1003.14 1002.88 1002.61 1002.33 1002.07 1001.82 1001.58 1001.37
1014.32 1014.32 1014.24 1014.10 1013.89 1013.62 1013.30 1012.94 1012.58 1012.24 1011.92 1011.65 1011.42 1011.23 1011.06 1010.90 1010.72 1010.49 1010.21 1009.86 1009.44 1008.97 1008.45 1007.90 1007.35 1006.81 1006.31 1005.84 1005.42 1005.04 1004.70 1004.38 1004.07 1003.76 1003.46 1003.15 1002.84 1002.53 1002.23 1001.95 1001.69 1001.46 1001.25
1013.85 1013.83 1013.76 1013.62 1013.42 1013.16 1012.86 1012.54 1012.20 1011.87 1011.56 1011.28 1011.02 1010.80 1010.59 1010.39 1010.18 1009.95 1009.68 1009.38 1009.04 1008.67 1008.27 1007.87 1007.46 1007.07 1006.69 1006.32 1005.97 1005.63 1005.28 1004.93 1004.56 1004.18 1003.79 1003.39 1003.00 1002.62 1002.26 1001.93 1001.64 1001.39 1001.17
1013.25 1013.22 1013.14 1013.01 1012.84 1012.62 1012.37 1012.10 1011.81 1011.52 1011.24 1010.96 1010.70 1010.45 1010.21 1009.98 1009.75 1009.51 1009.27 1009.02 1008.77 1008.52 1008.28 1008.05 1007.82 1007.59 1007.36 1007.12 1006.85 1006.54 1006.19 1005.80 1005.36 1004.88 1004.38 1003.86 1003.36 1002.87 1002.43 1002.03 1001.69 1001.40 1001.15
1012.58 1012.53 1012.44 1012.33 1012.19 1012.02 1011.84 1011.64 1011.42 1011.20 1010.96 1010.72 1010.47 1010.22 1009.97 1009.72 1009.47 1009.24 1009.03 1008.85 1008.69 1008.58 1008.49 1008.42 1008.37 1008.32 1008.24 1008.12 1007.94 1007.67 1007.32 1006.89 1006.37 1005.79 1005.16 1004.51 1003.88 1003.27 1002.72 1002.24 1001.84 1001.49 1001.22
1011.90 1011.82 1011.72 1011.61 1011.50 1011.39 1011.27 1011.15 1011.02 1010.88 1010.72 1010.53 1010.32 1010.10 1009.86 1009.61 1009.37 1009.16 1008.99 1008.87 1008.80 1008.80 1008.86 1008.95 1009.06 1009.16 1009.22 1009.20 1009.09 1008.87 1008.51 1008.03 1007.44 1006.75 1006.01 1005.24 1004.48 1003.76 1003.11 1002.54 1002.07 1001.68 1001.36
1011.28 1011.16 1011.03 1010.91 1010.81 1010.73 1010.68 1010.63 1010.59 1010.54 1010.46 1010.36 1010.22 1010.04 1009.84 1009.63 1009.42 1009.25 1009.12 1009.05 1009.07 1009.16 1009.32 1009.53 1009.76 1009.97 1010.14 1010.20 1010.15 1009.95 1009.59 1009.07 1008.42 1007.65 1006.81 1005.94 1005.08 1004.26 1003.53 1002.89 1002.36 1001.93 1001.58
1010.75 1010.58 1010.40 1010.25 1010.14 1010.08 1010.06 1010.07 1010.11 1010.14 1010.16 1010.14 1010.09 1009.99 1009.86 1009.71 1009.56 1009.43 1009.35 1009.34 1009.42 1009.57 1009.80 1010.08 1010.39 1010.67 1010.89 1011.01 1010.98 1010.79 1010.43 1009.89 1009.20 1008.38 1007.48 1006.55 1005.62 1004.74 1003.95 1003.27 1002.69 1002.23 1001.87
1010.33 1010.10 1009.86 1009.67 1009.52 1009.44 1009.43 1009.47 1009.56 1009.67 1009.77 1009.85 1009.89 1009.89 1009.86 1009.79 1009.71 1009.65 1009.63 1009.68 1009.79 1009.99 1010.25 1010.56 1010.89 1011.20 1011.44 1011.56 1011.55 1011.36 1010.99 1010.44 1009.74 1008.91 1007.99 1007.03 1006.09 1005.19 1004.37 1003.67 1003.07 1002.60 1002.22
1009.99 1009.70 1009.40 1009.14 1008.95 1008.83 1008.80 1008.85 1008.97 1009.12 1009.30 1009.47 1009.62 1009.73 1009.80 1009.83 1009.85 1009.88 1009.93 1010.02 1010.17 1010.38 1010.65 1010.96 1011.27 1011.56 1011.78 1011.89 1011.87 1011.67 1011.31 1010.77 1010.08 1009.27 1008.37 1007.44 1006.51 1005.62 1004.82 1004.11 1003.52 1003.03 1002.65
Thickness
5692 5688 5684 5680 5677 5674 5671 5668 5665 5662 5659 5656 5654 5651 5648 5645 5643 5640 5638 5636 5632 5629 5627 5624 5621 5620 5618 5616 5615 5614 5613 5611 5608 5611 5612 5614 5612 5612 5611 5611 5611 5611 5610
5688 5684 5680 5676 5673 5670 5667 5664 5661 5659 5656 5654 5651 5648 5645 5643 5640 5637 5634 5632 5629 5625 5623 5621 5618 5616 5613 5611 5610 5609 5608 5607 5604 5604 5605 5607 5607 5607 5607 5606 5607 5607 5607
5685 5681 5676 5673 5669 5666 5664 5661 5659 5656 5654 5652 5649 5646 5643 5640 5637 5634 5631 5629 5626 5623 5621 5617 5615 5612 5609 5607 5606 5605 5604 5604 5601 5599 5600 5602 5602 5602 5601 5601 5601 5601 5602
5681 5677 5673 5670 5666 5664 5661 5659 5656 5654 5651 5649 5646 5643 5641 5638 5635 5632 5628 5625 5623 5621 5618 5615 5613 5610 5607 5605 5603 5601 5600 5598 5597 5596 5596 5597 5597 5597 5596 5595 5594 5595 5595
5677 5673 5670 5667 5664 5661 5658 5656 5654 5652 5649 5646 5643 5640 5638 5635 5631 5627 5624 5623 5619 5617 5615 5612 5611 5608 5606 5603 5601 5598 5596 5594 5592 5591 5591 5591 5591 5590 5590 5590 5589 5589 5590
5673 5670 5667 5664 5661 5658 5655 5653 5651 5649 5646 5643 5639 5637 5634 5631 5626 5622 5620 5618 5615 5613 5611 5609 5608 5606 5603 5601 5598 5596 5594 5590 5589 5587 5586 5586 5586 5586 5586 5585 5583 5582 5583
5670 5667 5665 5662 5658 5655 5653 5651 5648 5645 5643 5639 5637 5634 5630 5626 5623 5619 5617 5613 5612 5610 5608 5606 5605 5604 5600 5598 5596 5593 5591 5589 5586 5584 5582 5582 5582 5583 5581 5580 5578 5578 5578
5666 5664 5662 5659 5656 5653 5650 5647 5644 5642 5639 5637 5634 5632 5628 5624 5620 5617 5614 5611 5610 5608 5607 5604 5601 5599 5597 5593 5592 5590 5589 5587 5586 5583 5581 5580 5580 5579 5577 5576 5575 5575 5576
5662 5660 5658 5656 5653 5650 5647 5644 5642 5639 5637 5635 5633 5630 5626 5622 5618 5615 5611 5609 5608 5607 5606 5603 5599 5596 5592 5588 5586 5585 5583 5583 5583 5581 5579 5577 5576 5575 5573 5571 5570 5569 5570
5660 5658 5656 5654 5651 5648 5645 5642 5640 5637 5635 5633 5630 5628 5624 5620 5616 5612 5608 5607 5605 5604 5602 5599 5596 5592 5588 5584 5580 5579 5577 5577 5577 5576 5574 5573 5572 5572 5571 5568 5567 5566 5566
5660 5657 5654 5651 5649 5647 5644 5641 5638 5635 5633 5630 5627 5625 5622 5618 5615 5610 5606 5603 5601 5599 5597 5595 5593 5588 5584 5579 5575 5573 5572 5571 5570 5570 5569 5569 5569 5569 5569 5568 5567 5565 5564
5658 5654 5651 5649 5647 5645 5641 5638 5636 5633 5629 5627 5624 5622 5620 5617 5613 5609 5604 5599 5596 5593 5592 5590 5588 5583 5579 5576 5573 5571 5569 5566 5565 5564 5564 5564 5565 5565 5566 5566 5566 5566 5565
5654 5651 5648 5646 5644 5642 5639 5636 5633 5631 5627 5624 5622 5620 5617 5615 5611 5606 5601 5597 5593 5589 5588 5586 5582 5579 5576 5574 5571 5569 5566 5563 5562 5561 5560 5561 5561 5562 5562 5563 5563 5564 5563
5651 5647 5645 5643 5641 5640 5637 5635 5632 5629 5626 5623 5620 5617 5614 5611 5606 5601 5598 5595 5590 5587 5584 5582 5580 5578 5574 5571 5568 5567 5564 5562 5560 5558 5558 5558 5559 5559 5558 5558 5558 5559 5558
5648 5645 5644 5642 5641 5638 5635 5632 5630 5627 5624 5619 5616 5613 5608 5605 5600 5595 5591 5590 5587 5584 5579 5579 5578 5576 5573 5570 5568 5565 5562 5560 5557 5555 5554 5553 5554 5555 5555 5555 5555 5555 5554
5646 5643 5642 5641 5639 5637 5634 5631 5627 5623 5619 5616 5612 5608 5604 5600 5596 5593 5589 5586 5582 5578 5575 5576 5575 5572 5569 5567 5564 5561 5559 5556 5553 5551 5550 5548 5548 5549 5550 5550 5551 5550 5549
5645 5643 5642 5640 5638 5636 5634 5631 5625 5620 5616 5613 5610 5606 5602 5598 5595 5592 5588 5584 5581 5576 5574 5574 5572 5569 5567 5564 5560 5557 5555 5552 5550 5547 5545 5544 5544 5544 5544 5544 5544 5544 5544
5646 5643 5640 5639 5638 5636 5634 5631 5628 5623 5619 5616 5611 5606 5601 5598 5594 5590 5586 5581 5582 5578 5574 5572 5570 5567 5564 5560 5557 5554 5550 5547 5545 5544 5542 5540 5539 5538 5538 5538 5538 5538 5538
5645 5643 5640 5639 5638 5636 5634 5632 5629 5626 5622 5618 5614 5608 5602 5598 5593 5589 5583 5580 5580 5578 5575 5571 5567 5563 5560 5557 5553 5550 5546 5543 5541 5539 5536 5535 5533 5532 5532 5532 5533 5532 5531
5644 5641 5639 5639 5637 5635 5633 5631 5628 5625 5621 5618 5613 5609 5605 5599 5595 5591 5586 5582 5578 5575 5572 5568 5563 5559 5556 5552 5549 5545 5542 5539 5536 5533 5531 5529 5528 5526 5526 5526 5528 5527 5527
5647 5644 5639 5638 5637 5635 5632 5629 5626 5623 5620 5616 5612 5608 5602 5599 5595 5591 5587 5581 5576 5572 5568 5563 5558 5555 5551 5547 5543 5540 5536 5533 5530 5527 5525 5524 5523 5522 5521 5521 5522 5522 5522
5648 5645 5642 5639 5637 5634 5631 5628 5626 5623 5619 5615 5611 5607 5601 5598 5594 5589 5583 5578 5573 5569 5564 5559 5554 5550 5546 5542 5538 5534 5530 5526 5523 5520 5518 5518 5517 5517 5517 5516 5516 5516 5515
5648 5646 5643 5640 5637 5633 5631 5629 5626 5623 5619 5615 5610 5606 5600 5595 5590 5585 5580 5575 5569 5564 5560 5555 5550 5545 5540 5536 5531 5526 5521 5516 5514 5513 5512 5512 5512 5512 5511 5510 5510 5509 5509
5649 5647 5644 5641 5638 5635 5632 5628 5625 5622 5618 5614 5608 5603 5598 5592 5587 5582 5576 5571 5565 5559 5555 5550 5545 5539 5534 5529 5524 5519 5513 5509 5507 5507 5507 5506 5507 5507 5506 5505 5504 5504 5503
5650 5648 5645 5642 5639 5635 5632 5628 5625 5621 5617 5611 5606 5601 5596 5590 5584 5578 5572 5566 5560 5555 5551 5546 5540 5535 5529 5524 5518 5513 5508 5505 5504 5502 5502 5502 5503 5502 5501 5501 5500 5499 5498
5650 5648 5646 5643 5639 5636 5632 5628 5624 5619 5614 5609 5604 5598 5593 5587 5581 5574 5568 5562 5557 5552 5547 5542 5536 5530 5524 5519 5513 5509 5505 5503 5501 5500 5498 5499 5499 5498 5497 5496 5495 5494 5493